| time (UTC) | temp C | wind direction | speed KPH | gust KPH | rain 1hr cm | rain 24hr cm | rain mn cm | humidity % | barometer mb |
| 20260504185534 | 21 | 221 | 6.4 | 29.0 | 0.00 | 0.00 | 0.00 | 40 | 1010.1 |
| 20260504185033 | 21 | 206 | 11.3 | 29.0 | 0.00 | 0.00 | 0.00 | 40 | 1010.3 |
| 20260504184538 | 21 | 360 | 1.6 | 33.8 | 0.00 | 0.00 | 0.00 | 40 | 1010.3 |
| 20260504184035 | 20 | 260 | 14.5 | 33.8 | 0.00 | 0.00 | 0.00 | 40 | 1010.5 |
| 20260504183532 | 20 | 214 | 9.7 | 29.0 | 0.00 | 0.00 | 0.00 | 40 | 1010.5 |
| 20260504183036 | 20 | 209 | 6.4 | 22.5 | 0.00 | 0.00 | 0.00 | 41 | 1010.5 |
| 20260504182529 | 20 | 360 | 1.6 | 16.1 | 0.00 | 0.00 | 0.00 | 40 | 1010.6 |
| 20260504182029 | 20 | 360 | 3.2 | 19.3 | 0.00 | 0.00 | 0.00 | 41 | 1010.6 |
| 20260504181531 | 20 | 274 | 8.0 | 19.3 | 0.00 | 0.00 | 0.00 | 42 | 1010.7 |
| 20260504181028 | 20 | 360 | 3.2 | 25.7 | 0.00 | 0.00 | 0.00 | 39 | 1010.8 |
| 20260504180527 | 20 | 196 | 3.2 | 25.7 | 0.00 | 0.00 | 0.00 | 39 | 1010.8 |
| 20260504180027 | 20 | 360 | 1.6 | 12.9 | 0.00 | 0.00 | 0.00 | 41 | 1010.9 |
| 20260504175525 | 20 | 232 | 1.6 | 16.1 | 0.00 | 0.00 | 0.00 | 39 | 1011.0 |
| 20260504175025 | 20 | 269 | 1.6 | 16.1 | 0.00 | 0.00 | 0.00 | 39 | 1011.1 |
| 20260504174525 | 20 | 360 | 3.2 | 14.5 | 0.00 | 0.00 | 0.00 | 40 | 1011.1 |
| 20260504174024 | 20 | 187 | 0.0 | 22.5 | 0.00 | 0.00 | 0.00 | 42 | 1011.1 |
| 20260504173526 | 20 | 226 | 8.0 | 33.8 | 0.00 | 0.00 | 0.00 | 40 | 1011.2 |
| 20260504173022 | 20 | 196 | 12.9 | 33.8 | 0.00 | 0.00 | 0.00 | 39 | 1011.2 |
| 20260504172523 | 20 | 360 | 4.8 | 22.5 | 0.00 | 0.00 | 0.00 | 40 | 1011.2 |
| 20260504172022 | 19 | 313 | 11.3 | 38.6 | 0.00 | 0.00 | 0.00 | 40 | 1011.2 |
| 20260504171521 | 19 | 360 | 8.0 | 25.7 | 0.00 | 0.00 | 0.00 | 42 | 1011.3 |
| 20260504171020 | 19 | 238 | 1.6 | 27.4 | 0.00 | 0.00 | 0.00 | 41 | 1011.5 |
| 20260504170519 | 19 | 360 | 9.7 | 20.9 | 0.00 | 0.00 | 0.00 | 40 | 1011.7 |
| 20260504151058 | 17 | 177 | 0.0 | 17.7 | 0.00 | 0.00 | 0.00 | 42 | 1013.2 |
| 20260504150558 | 16 | 360 | 1.6 | 17.7 | 0.00 | 0.00 | 0.00 | 42 | 1013.2 |
| 20260504141046 | 15 | 209 | 1.6 | 9.7 | 0.00 | 0.00 | 0.00 | 45 | 1013.7 |
| 20260504140546 | 15 | 177 | 3.2 | 9.7 | 0.00 | 0.00 | 0.00 | 44 | 1013.7 |
| 20260504130533 | 12 | 122 | 0.0 | 0.0 | 0.00 | 0.00 | 0.00 | 54 | 1014.2 |
| 20260504110520 | 7 | 254 | 0.0 | 0.0 | 0.00 | 0.00 | 0.00 | 68 | 1014.5 |
| 20260504100515 | 5 | 254 | 0.0 | 0.0 | 0.00 | 0.00 | 0.00 | 73 | 1014.7 |
| 20260504082004 | 6 | 254 | 0.0 | 0.0 | 0.00 | 0.00 | 0.00 | 68 | 1014.8 |
| 20260504081504 | 6 | 254 | 0.0 | 0.0 | 0.00 | 0.00 | 0.00 | 70 | 1014.9 |
| 20260504081003 | 6 | 254 | 0.0 | 0.0 | 0.00 | 0.00 | 0.00 | 69 | 1014.9 |
| 20260504080505 | 6 | 254 | 0.0 | 0.0 | 0.00 | 0.00 | 0.00 | 68 | 1014.9 |
| 20260504050541 | 10 | 267 | 8.0 | 14.5 | 0.00 | 0.00 | 0.00 | 51 | 1014.8 |
| 20260504045540 | 10 | 263 | 9.7 | 12.9 | 0.00 | 0.00 | 0.00 | 51 | 1014.9 |
| 20260504045039 | 10 | 261 | 8.0 | 12.9 | 0.00 | 0.00 | 0.00 | 53 | 1014.9 |
| 20260504044543 | 10 | 262 | 6.4 | 11.3 | 0.00 | 0.00 | 0.00 | 53 | 1014.9 |
| 20260504044039 | 10 | 263 | 6.4 | 11.3 | 0.00 | 0.00 | 0.00 | 52 | 1014.9 |
| 20260504043538 | 10 | 269 | 6.4 | 11.3 | 0.00 | 0.00 | 0.00 | 52 | 1014.9 |
| 20260504043049 | 10 | 271 | 6.4 | 11.3 | 0.00 | 0.00 | 0.00 | 52 | 1014.8 |
| 20260504042535 | 10 | 277 | 8.0 | 11.3 | 0.00 | 0.00 | 0.00 | 52 | 1014.8 |
| 20260504042035 | 10 | 273 | 8.0 | 11.3 | 0.00 | 0.00 | 0.00 | 52 | 1014.8 |
| 20260504041536 | 10 | 262 | 4.8 | 9.7 | 0.00 | 0.00 | 0.00 | 52 | 1014.8 |
| 20260504041034 | 10 | 257 | 4.8 | 9.7 | 0.00 | 0.00 | 0.00 | 52 | 1014.8 |
| 20260504040534 | 10 | 257 | 4.8 | 11.3 | 0.00 | 0.00 | 0.00 | 51 | 1014.8 |
| 20260504040033 | 10 | 260 | 6.4 | 12.9 | 0.00 | 0.00 | 0.00 | 49 | 1014.7 |
| 20260504035534 | 10 | 275 | 8.0 | 12.9 | 0.00 | 0.00 | 0.00 | 49 | 1014.7 |
| 20260504035034 | 10 | 262 | 8.0 | 11.3 | 0.00 | 0.00 | 0.00 | 48 | 1014.8 |
| 20260504034540 | 11 | 257 | 4.8 | 11.3 | 0.00 | 0.00 | 0.00 | 48 | 1014.7 |
| 20260504034034 | 11 | 263 | 6.4 | 11.3 | 0.00 | 0.00 | 0.00 | 48 | 1014.6 |
| 20260504033534 | 11 | 262 | 8.0 | 11.3 | 0.00 | 0.00 | 0.00 | 47 | 1014.7 |
| 20260504033032 | 11 | 259 | 6.4 | 11.3 | 0.00 | 0.00 | 0.00 | 47 | 1014.6 |
| 20260504032532 | 11 | 246 | 3.2 | 11.3 | 0.00 | 0.00 | 0.00 | 48 | 1014.7 |
| 20260504032032 | 11 | 250 | 4.8 | 12.9 | 0.00 | 0.00 | 0.00 | 47 | 1014.6 |
| 20260504031537 | 11 | 261 | 8.0 | 12.9 | 0.00 | 0.00 | 0.00 | 47 | 1014.5 |
| 20260504031032 | 11 | 254 | 4.8 | 11.3 | 0.00 | 0.00 | 0.00 | 47 | 1014.4 |
| 20260504030532 | 11 | 258 | 6.4 | 11.3 | 0.00 | 0.00 | 0.00 | 47 | 1014.4 |
| 20260504030039 | 11 | 248 | 4.8 | 8.0 | 0.00 | 0.00 | 0.00 | 47 | 1014.4 |
| 20260504025532 | 11 | 260 | 4.8 | 9.7 | 0.00 | 0.00 | 0.00 | 47 | 1014.4 |
| 20260504025032 | 11 | 262 | 6.4 | 9.7 | 0.00 | 0.00 | 0.00 | 46 | 1014.4 |
| 20260504024535 | 11 | 262 | 6.4 | 9.7 | 0.00 | 0.00 | 0.00 | 46 | 1014.4 |
| 20260504024031 | 11 | 258 | 4.8 | 9.7 | 0.00 | 0.00 | 0.00 | 45 | 1014.4 |
| 20260504023531 | 12 | 253 | 4.8 | 8.0 | 0.00 | 0.00 | 0.00 | 44 | 1014.4 |
| 20260504023031 | 12 | 252 | 4.8 | 8.0 | 0.00 | 0.00 | 0.00 | 45 | 1014.5 |
| 20260504022531 | 12 | 256 | 3.2 | 6.4 | 0.00 | 0.00 | 0.00 | 45 | 1014.4 |
| 20260504022031 | 12 | 256 | 3.2 | 6.4 | 0.00 | 0.00 | 0.00 | 45 | 1014.4 |
| 20260504021540 | 12 | 258 | 4.8 | 9.7 | 0.00 | 0.00 | 0.00 | 44 | 1014.4 |
| 20260504021030 | 12 | 257 | 4.8 | 8.0 | 0.00 | 0.00 | 0.00 | 44 | 1014.4 |
| 20260504020530 | 12 | 243 | 3.2 | 8.0 | 0.00 | 0.00 | 0.00 | 44 | 1014.4 |
| 20260504020036 | 12 | 244 | 3.2 | 8.0 | 0.00 | 0.00 | 0.00 | 44 | 1014.4 |
| 20260504015530 | 12 | 250 | 4.8 | 8.0 | 0.00 | 0.00 | 0.00 | 44 | 1014.4 |
| 20260504015030 | 12 | 252 | 3.2 | 6.4 | 0.00 | 0.00 | 0.00 | 43 | 1014.4 |
| 20260504014530 | 12 | 259 | 4.8 | 9.7 | 0.00 | 0.00 | 0.00 | 43 | 1014.3 |
| 20260504014030 | 12 | 259 | 4.8 | 9.7 | 0.00 | 0.00 | 0.00 | 43 | 1014.3 |
| 20260504013532 | 12 | 258 | 4.8 | 9.7 | 0.00 | 0.00 | 0.00 | 42 | 1014.3 |
| 20260504013035 | 12 | 258 | 4.8 | 9.7 | 0.00 | 0.00 | 0.00 | 42 | 1014.2 |
| 20260504012529 | 12 | 257 | 4.8 | 11.3 | 0.00 | 0.00 | 0.00 | 41 | 1014.2 |
| 20260504012029 | 13 | 258 | 6.4 | 11.3 | 0.00 | 0.00 | 0.00 | 41 | 1014.2 |
| 20260504011529 | 13 | 250 | 4.8 | 8.0 | 0.00 | 0.00 | 0.00 | 41 | 1014.2 |
| 20260504011032 | 13 | 252 | 0.0 | 6.4 | 0.00 | 0.00 | 0.00 | 41 | 1014.1 |
| 20260504010528 | 13 | 259 | 0.0 | 4.8 | 0.00 | 0.00 | 0.00 | 41 | 1014.0 |
| 20260504010029 | 13 | 259 | 1.6 | 6.4 | 0.00 | 0.00 | 0.00 | 41 | 1014.1 |
| 20260504005530 | 13 | 259 | 3.2 | 6.4 | 0.00 | 0.00 | 0.00 | 40 | 1014.1 |
| 20260504005029 | 13 | 259 | 1.6 | 6.4 | 0.00 | 0.00 | 0.00 | 40 | 1014.1 |
| 20260504004539 | 13 | 263 | 3.2 | 12.9 | 0.00 | 0.00 | 0.00 | 39 | 1014.1 |
| 20260504004030 | 13 | 264 | 4.8 | 12.9 | 0.00 | 0.00 | 0.00 | 38 | 1014.0 |
| 20260504003529 | 13 | 277 | 4.8 | 11.3 | 0.00 | 0.00 | 0.00 | 38 | 1013.9 |
| 20260504003027 | 13 | 274 | 4.8 | 12.9 | 0.00 | 0.00 | 0.00 | 38 | 1013.8 |
| 20260504002527 | 13 | 275 | 8.0 | 14.5 | 0.00 | 0.00 | 0.00 | 37 | 1013.8 |
| 20260504002029 | 14 | 275 | 9.7 | 16.1 | 0.00 | 0.00 | 0.00 | 37 | 1013.7 |
| 20260504001534 | 14 | 277 | 9.7 | 16.1 | 0.00 | 0.00 | 0.00 | 37 | 1013.7 |
| 20260504001028 | 14 | 267 | 8.0 | 19.3 | 0.00 | 0.00 | 0.00 | 37 | 1013.7 |
| 20260504000527 | 14 | 276 | 12.9 | 22.5 | 0.00 | 0.00 | 0.00 | 36 | 1013.6 |
| 20260504000028 | 14 | 288 | 9.7 | 22.5 | 0.00 | 0.00 | 0.00 | 36 | 1013.5 |
| 20260503235527 | 14 | 287 | 11.3 | 19.3 | 0.00 | 0.00 | 0.00 | 36 | 1013.5 |
| 20260503235027 | 15 | 265 | 11.3 | 19.3 | 0.00 | 0.00 | 0.00 | 35 | 1013.4 |
| 20260503234528 | 15 | 290 | 11.3 | 17.7 | 0.00 | 0.00 | 0.00 | 35 | 1013.3 |
| 20260503234027 | 15 | 275 | 11.3 | 22.5 | 0.00 | 0.00 | 0.00 | 35 | 1013.3 |
| 20260503233526 | 15 | 263 | 14.5 | 22.5 | 0.00 | 0.00 | 0.00 | 34 | 1013.3 |
| 20260503233026 | 15 | 259 | 14.5 | 19.3 | 0.00 | 0.00 | 0.00 | 35 | 1013.3 |
| 20260503232526 | 15 | 248 | 12.9 | 20.9 | 0.00 | 0.00 | 0.00 | 34 | 1013.3 |
| 20260503232026 | 15 | 284 | 16.1 | 25.7 | 0.00 | 0.00 | 0.00 | 34 | 1013.3 |
| 20260503231526 | 15 | 296 | 17.7 | 27.4 | 0.00 | 0.00 | 0.00 | 34 | 1013.3 |
| 20260503231027 | 15 | 293 | 16.1 | 27.4 | 0.00 | 0.00 | 0.00 | 34 | 1013.2 |
| 20260503230525 | 15 | 283 | 14.5 | 25.7 | 0.00 | 0.00 | 0.00 | 34 | 1013.2 |
| 20260503230026 | 15 | 296 | 19.3 | 29.0 | 0.00 | 0.00 | 0.00 | 34 | 1013.2 |
| 20260503225525 | 15 | 273 | 16.1 | 29.0 | 0.00 | 0.00 | 0.00 | 34 | 1013.2 |
| 20260503225025 | 15 | 278 | 12.9 | 25.7 | 0.00 | 0.00 | 0.00 | 34 | 1013.1 |
| 20260503224525 | 15 | 289 | 14.5 | 27.4 | 0.00 | 0.00 | 0.00 | 34 | 1013.1 |
| 20260503224025 | 15 | 298 | 19.3 | 27.4 | 0.00 | 0.00 | 0.00 | 33 | 1013.1 |
| 20260503223528 | 15 | 284 | 11.3 | 24.1 | 0.00 | 0.00 | 0.00 | 35 | 1013.2 |
| 20260503223024 | 15 | 281 | 16.1 | 29.0 | 0.00 | 0.00 | 0.00 | 34 | 1013.2 |
| 20260503222523 | 15 | 290 | 19.3 | 29.0 | 0.00 | 0.00 | 0.00 | 35 | 1013.1 |
| 20260503222023 | 15 | 300 | 16.1 | 27.4 | 0.00 | 0.00 | 0.00 | 35 | 1013.2 |
| 20260503221524 | 15 | 286 | 16.1 | 27.4 | 0.00 | 0.00 | 0.00 | 34 | 1013.2 |
| 20260503221026 | 15 | 289 | 12.9 | 32.2 | 0.00 | 0.00 | 0.00 | 35 | 1013.2 |
| 20260503220626 | 15 | 274 | 16.1 | 32.2 | 0.00 | 0.00 | 0.00 | 35 | 1013.3 |
| 20260503220031 | 15 | 275 | 17.7 | 33.8 | 0.00 | 0.00 | 0.00 | 34 | 1013.3 |
| 20260503215523 | 15 | 285 | 24.1 | 33.8 | 0.00 | 0.00 | 0.00 | 34 | 1013.3 |
| 20260503215022 | 15 | 301 | 17.7 | 30.6 | 0.00 | 0.00 | 0.00 | 35 | 1013.3 |
| 20260503214532 | 15 | 265 | 19.3 | 30.6 | 0.00 | 0.00 | 0.00 | 34 | 1013.2 |
| 20260503214022 | 15 | 271 | 14.5 | 24.1 | 0.00 | 0.00 | 0.00 | 36 | 1013.2 |
| 20260503213522 | 15 | 296 | 16.1 | 30.6 | 0.00 | 0.00 | 0.00 | 34 | 1013.2 |
| 20260503213030 | 15 | 301 | 16.1 | 33.8 | 0.00 | 0.00 | 0.00 | 35 | 1013.2 |
| 20260503212521 | 15 | 280 | 22.5 | 33.8 | 0.00 | 0.00 | 0.00 | 35 | 1013.2 |
| 20260503212020 | 15 | 297 | 11.3 | 27.4 | 0.00 | 0.00 | 0.00 | 35 | 1013.1 |
| 20260503211520 | 15 | 294 | 16.1 | 25.7 | 0.00 | 0.00 | 0.00 | 35 | 1013.2 |
| 20260503211019 | 15 | 309 | 3.2 | 29.0 | 0.00 | 0.00 | 0.00 | 37 | 1013.1 |
| 20260503210519 | 15 | 285 | 17.7 | 32.2 | 0.00 | 0.00 | 0.00 | 35 | 1013.2 |
| 20260503210020 | 15 | 291 | 17.7 | 32.2 | 0.00 | 0.00 | 0.00 | 35 | 1013.2 |
| 20260503205519 | 15 | 275 | 20.9 | 32.2 | 0.00 | 0.00 | 0.00 | 35 | 1013.2 |
| 20260503205021 | 15 | 275 | 16.1 | 27.4 | 0.00 | 0.00 | 0.00 | 35 | 1013.2 |
| 20260503204526 | 15 | 288 | 12.9 | 32.2 | 0.00 | 0.00 | 0.00 | 35 | 1013.2 |
| 20260503204017 | 15 | 307 | 20.9 | 32.2 | 0.00 | 0.00 | 0.00 | 35 | 1013.2 |
| 20260503203521 | 15 | 252 | 17.7 | 27.4 | 0.00 | 0.00 | 0.00 | 35 | 1013.3 |
| 20260503203016 | 14 | 286 | 14.5 | 27.4 | 0.00 | 0.00 | 0.00 | 36 | 1013.2 |
| 20260503202521 | 14 | 294 | 11.3 | 24.1 | 0.00 | 0.00 | 0.00 | 36 | 1013.3 |
| 20260503202015 | 14 | 307 | 9.7 | 24.1 | 0.00 | 0.00 | 0.00 | 37 | 1013.3 |
| 20260503201515 | 14 | 294 | 16.1 | 32.2 | 0.00 | 0.00 | 0.00 | 36 | 1013.4 |
| 20260503201016 | 14 | 305 | 19.3 | 32.2 | 0.00 | 0.00 | 0.00 | 36 | 1013.3 |
| 20260503200514 | 14 | 331 | 14.5 | 33.8 | 0.00 | 0.00 | 0.00 | 36 | 1013.4 |
| 20260503200014 | 14 | 267 | 20.9 | 33.8 | 0.00 | 0.00 | 0.00 | 35 | 1013.5 |
| 20260503195512 | 14 | 299 | 9.7 | 22.5 | 0.00 | 0.00 | 0.00 | 36 | 1013.4 |
| 20260503195012 | 14 | 296 | 11.3 | 22.5 | 0.00 | 0.00 | 0.00 | 35 | 1013.5 |
| 20260503194512 | 14 | 303 | 11.3 | 35.4 | 0.00 | 0.00 | 0.00 | 35 | 1013.6 |
| 20260503194013 | 14 | 285 | 20.9 | 35.4 | 0.00 | 0.00 | 0.00 | 36 | 1013.8 |
| 20260503193512 | 13 | 298 | 14.5 | 35.4 | 0.00 | 0.00 | 0.00 | 35 | 1013.8 |
| 20260503193011 | 13 | 304 | 22.5 | 35.4 | 0.00 | 0.00 | 0.00 | 35 | 1013.8 |
| 20260503192510 | 13 | 334 | 17.7 | 27.4 | 0.00 | 0.00 | 0.00 | 35 | 1014.0 |
| 20260503192013 | 13 | 284 | 12.9 | 29.0 | 0.00 | 0.00 | 0.00 | 36 | 1014.0 |
| 20260503191510 | 13 | 304 | 16.1 | 30.6 | 0.00 | 0.00 | 0.00 | 36 | 1014.0 |
| 20260503191009 | 13 | 283 | 17.7 | 32.2 | 0.00 | 0.00 | 0.00 | 36 | 1014.1 |
| 20260503190509 | 13 | 268 | 16.1 | 29.0 | 0.00 | 0.00 | 0.00 | 36 | 1014.1 |
| 20260503190016 | 13 | 252 | 12.9 | 27.4 | 0.00 | 0.00 | 0.00 | 36 | 1014.1 |